Location: Home
(42.5358°N, 72.7383°W)
Time: 19:27:39
(UTC-05:00)

Explorer 7 - Pass Details

Date: 07 December 2021
Orbit: 483 x 674 km, 50.3° (Epoch: 23 January)

Event Time Altitude Azimuth Distance (km) Brightness Sun altitude
Rises 10:15:38 0° 298° (WNW) 2,655 9.9 21.8°
Reaches altitude 10° 10:17:55 10° 294° (WNW) 1,737 9.0 21.9°
Maximum altitude 10:21:44 52° 217° (SW) 619 7.7 22.2°
Drops below altitude 10° 10:25:24 10° 140° (SE) 1,666 10.8 22.4°
Sets 10:27:34 0° 136° (SE) 2,535 11.3 22.5°
